Location: Baumgartsau
(48.4586°N, 14.0864°E)
Time: 02:16:09
(UTC+00:00)

Cosmos 1980 Rocket - Pass Details

Date: 09 April 2020
Orbit: 829 x 850 km, 71.0° (Epoch: 25 May)

Event Time Altitude Azimuth Distance (km) Brightness Sun altitude
Rises 21:36:59 0° 329° (NNW) 3,390 6.5 -30.3°
Reaches altitude 10° 21:39:28 10° 325° (NW) 2,455 5.5 -30.5°
Enters shadow 21:44:07 50° 281° (W) 1,058 2.8 -30.8°
